www.pogodaiklimat.ru

Погода и климат >> Архив погоды >> Россия >> Вологодская область >> Вологда


АРХИВ ПОГОДЫ в Вологде

Время (UTC), дата Ветер
(напр.,м/с)
 
Видим.   Явления Облачность Т
(С)
Тd
(С)
f
(%)
Тe
(С)
Тes
(С)
Комфортность P
(гПа)
Po
(гПа)
Тmin
(С)
Tmax
(С)
R
(мм)
R24
(мм)
S
(см)
09 12.05 ЮЗ 3 20 км 3/0
[Ci fib]
+20.8 +3.6 32 +22 +32 комфорт 1023.5 1008.1
12 12.05 З 3 20 км 4/0
[Ci]
+21.8 +3.6 30 +22 +29 комфорт 1024.2 1008.9
15 12.05 СЗ 3 20 км 10/1 600 м
[Sc diur, vesp Ci]
+21.4 +4.0 32 +22 +23 комфорт 1024.7 1009.4 +22.7
18 12.05 СЗ 1 20 км 10/0
[Cs]
+15.9 +8.5 61 +17 +17 тепло 1025.6 1010.0
21 12.05 С 1 20 км 10/0
[Ci sp]
+12.9 +6.5 65 +13 +13 тепло 1025.6 1009.8
00 13.05 С 1 20 км 10/0
[As op]
+12.4 +8.1 75 +12 +12 тепло 1026.2 1010.4
03 13.05 СЗ 2 20 км 10/0 2000 м
[Ac As]
+14.2 +9.1 71 +14 +14 тепло 1026.4 1010.7 +11.6
06 13.05 С 2 20 км в посл. час дождь 10/8 600 м
[Sc Ac und]
+16.2 +9.0 62 +16 +17 тепло 1026.1 1010.5
09 13.05 С 4 20 км {дождь} 10/6 600 м
[Sc Ac und]
+15.7 +9.3 66 +15 +16 тепло 1025.5 1009.9
12 13.05 С 3 20 км {дождь} 10/6 600 м
[Sc Ac und]
+16.3 +9.7 65 +16 +17 тепло 1025.3 1009.7
15 13.05 С 3 20 км 10/6 600 м
[Sc Ac und]
+15.7 +9.5 67 +15 +15 тепло 1024.1 1008.5 +17.0 0.3
18 13.05 С 2 20 км 9/6 1000 м
[Sc Ac trans]
+14.2 +9.5 73 +14 +14 тепло 1023.9 1008.2
21 13.05 С 2 20 км 9/4 1000 м
[Sc Ac trans]
+13.0 +9.0 77 +12 +12 тепло 1023.0 1007.4
00 14.05 С 3 20 км 10/10 1080 м
[Sc]
+12.7 +8.9 78 +11 +11 тепло 1022.8 1007.0
03 14.05 С 3 20 км 10/4 600 м
[Sc Ac trans Ci fib]
+12.9 +9.2 78 +12 +12 тепло 1022.2 1006.6 +12.2
06 14.05 СВ 4 20 км 10/3 600 м
[Sc Ac trans Ci fib]
+17.1 +9.5 61 +17 +19 тепло 1021.2 1005.8
09 14.05 СВ 3 20 км 8/6 600 м
[Cu Sc Ci fib]
+19.5 +8.5 49 +21 +25 комфорт 1020.8 1005.5
12 14.05 СВ 3 20 км 8/6 600 м
[Cu Sc Ac trans Ci fib]
+21.3 +8.1 43 +22 +25 комфорт 1019.7 1004.4
15 14.05 В 2 20 км 9/8 600 м
[Sc Ac trans Ci fib]
+21.2 +8.3 43 +22 +23 комфорт 1018.7 1003.5 +22.8
18 14.05 штиль 0 20 км 8/0
[Ac trans]
+15.3 +9.6 69 +15 +15 тепло 1018.8 1003.3
21 14.05 штиль 0 20 км 3/0
[Ac trans]
+10.0 +7.1 82 +9 +9 тепло 1018.9 1003.1
00 15.05 СЗ 3 20 км 3/0
[Ac trans]
+11.0 +9.0 87 +9 +9 тепло 1019.5 1003.8
03 15.05 С 4 20 км 9/0
[Ci]
+12.2 +6.9 70 +10 +11 тепло 1019.6 1003.9 +9.5
06 15.05 СЗ 6-10
{10}
20 км 6/0
[Ci fib]
+14.1 +6.7 61 +12 +15 тепло 1020.6 1005.0
09 15.05 СЗ 7-12
{12}
20 км 6/0
[Ci fib]
+15.1 +5.8 54 +13 +17 по сезону 1021.2 1005.7
12 15.05 СЗ 8-11
{13}
20 км 8/3 600 м
[Sc Ci fib]
+15.6 +3.1 43 +14 +15 по сезону 1021.8 1006.3
15 15.05 СЗ 6-10
{13}
20 км 6/0
[Ci fib]
+14.8 -0.2 36 +13 +14 по сезону 1021.7 1006.1 +16.1
18 15.05 С 4
{10}
20 км 6/0
[Ac trans Ci fib]
+11.5 -1.2 41 +10 +10 по сезону 1023.5 1007.7
21 15.05 С 3 20 км ясно +7.5 -1.7 52 +5 +5 по сезону 1024.0 1008.0
00 16.05 С 1 20 км ясно +2.0 -2.4 73 +1 +1 по сезону 1025.2 1008.8
03 16.05 С 4 20 км ясно +6.6 -1.8 55 +3 +4 прохладно 1025.3 1009.2 +1.8
06 16.05 С 5 20 км 1/1 600 м
[Cu hum]
+11.5 -4.2 33 +9 +13 по сезону 1025.3 1009.5
09 16.05 С 4
{11}
20 км 9/9 900 м
[Sc diur, vesp]
+13.6 -4.7 28 +12 +13 по сезону 1025.5 1009.7
12 16.05 СЗ 6-10
{10}
20 км 9/9 600 м
[Sc diur, vesp]
+12.8 -3.9 31 +11 +11 прохладно 1025.7 1009.9
15 16.05 С 4 20 км н/о +12.0 -5.2 30 +10 +11 по сезону 1025.7 1009.9 +14.4
18 16.05 СЗ 1 20 км 8/4 600 м
[Sc Ac trans]
+8.8 -3.4 42 +9 +9 по сезону 1026.0 1010.0
21 16.05 СВ 1 20 км 1/0
[Ac trans]
+0.9 -0.6 90 -1 -1 холодно 1026.5 1009.9
00 17.05 ЮЗ 1 20 км 1/0
[Ci fib]
-0.7 -2.0 91 -3 -3 холодно 1026.6 1009.9
03 17.05 ЮЗ 1 20 км 1/0
[Ci fib]
+5.0 0.0 70 +4 +6 прохладно 1025.7 1009.4 -1.3
06 17.05 З 4 20 км 3/0
[Ac trans Ci fib]
+13.4 -3.8 30 +12 +17 тепло 1024.1 1008.3
09 17.05 СЗ 6-10
{11}
20 км 9/8 600 м
[Cu hum Ac trans]
+16.0 -3.0 27 +15 +16 тепло 1021.6 1005.9
12 17.05 СЗ 7-10
{12}
20 км 9/9 600 м
[Sc]
+16.7 -2.5 27 +16 +16 тепло 1019.7 1004.1
15 17.05 СЗ 5
{12}
20 км 9/6 600 м
[Sc Ac trans]
+16.2 +0.9 35 +15 +16 тепло 1018.5 1002.9 +18.3
18 17.05 СЗ 2
{11}
20 км 4/0
[Ac trans Ci fib]
+11.8 +2.7 54 +11 +11 по сезону 1018.6 1002.8
21 17.05 СЗ 2 20 км 1/0
[Ci fib]
+6.8 -1.1 57 +5 +5 по сезону 1020.2 1004.1
00 18.05 С 2 20 км ясно +5.2 -3.0 55 +3 +3 по сезону 1021.0 1004.8
03 18.05 С 3 20 км 1/0
[Ci fib]
+6.3 -2.2 54 +4 +5 прохладно 1021.5 1005.3 +4.1
06 18.05 СЗ 4 20 км 9/0
[Ac trans]
+8.5 -2.3 47 +6 +9 прохладно 1021.0 1005.0
09 18.05 СЗ 5 20 км 9/0
[Ac trans]
+11.6 -1.6 40 +10 +13 по сезону 1019.4 1003.6
12 18.05 СЗ 4 20 км 9/0
[Ac trans]
+14.4 +1.0 40 +13 +16 по сезону 1016.6 1000.9
15 18.05 С 5 20 км 4/0 2000 м
[Ac trans]
+16.6 +1.1 35 +16 +17 тепло 1014.4 998.9 +16.6
18 18.05 С 3
{11}
20 км 3/3 1000 м
[Sc]
+11.3 -2.8 37 +10 +10 по сезону 1016.4 1000.6
21 18.05 СВ 3 20 км ясно +4.1 -3.2 59 +1 +1 холодно 1018.0 1001.8
00 19.05 СЗ 1 20 км ясно -0.6 -3.3 82 -3 -3 холодно 1019.6 1003.0
03 19.05 С 3 20 км ясно +5.4 -3.2 54 +3 +4 прохладно 1019.8 1003.6 -1.7

 

Местоположение метеостанции Вологда (Вологодская область, Россия): широта 59.32 долгота 39.93 высота над уровнем моря 130 м.

В архиве по умолчанию представлена погода в Вологде за последнюю неделю. Архивные данные за месяц целиком и за предыдущие месяцы, начиная с января 2011 года, Вы можете получить, выбрав интересующий диапазон дат из раскрывающегося списка и нажав кнопку "Ввод!".


*Определитесь, кто Вы:
робот инопланетянин человек

Внимание! Время в таблицах - всемирное. Для получения местного времени необходимо прибавить поправку, которая равна 3 ч.

Смотрите также архив погоды в соседних городах и на ближайших метеорологических станциях:

Погода в Коробово (Вологодская область, Россия) (50 км)
Погода в Владычном (Ярославская область, Россия) (62 км)
Погода в Яршево (Вологодская область, Россия) (103 км)
Погода в Пошехонье (Ярославская область, Россия) (104 км)
Погода в Череповце (Вологодская область, Россия) (112 км)
Погода в Данилове (Ярославская область, Россия) (125 км)
Погода в Вожеге (Вологодская область, Россия) (129 км)
Погода в Буе (Костромская область, Россия) (131 км)
Погода в Белозерске (Вологодская область, Россия) (144 км)
Погода в Рыбинске (Ярославская область, Россия) (154 км)

Пояснения к столбцам:

Ветер - указаны скорость ветра в м/с - средняя за 10 мин, порывы в срок и между сроками (в фигурных скобках) и направление, откуда дует ветер: С - северный, СВ - северо-восточный, В - восточный, ЮВ - юго-восточный, Ю - южный, ЮЗ - юго-западный, З - западный, СЗ - северо-западный.
Видимость - горизонтальная дальность видимости в метрах или километрах. При видимости от 1 до 10 км при отсутствии осадков обычно наблюдается дымка, при ухудшении видимости до 1 км и менее - туман. В сухую погоду видимость может ухудшаться дымом, пылью или мглою.
Явления - указаны атмосферные явления, наблюдавшиеся в срок или в последний час перед сроком; фигурными скобками обозначены явления, наблюдавшиеся между сроками (за 1-3 часа до срока); квадратными скобками обозначены град или гололедные отложения с указанием их диаметра в мм.
Облачность - указаны через наклонную черту общая и нижняя облачность в баллах и высота нижней границы облаков в метрах; квадратными скобками обозначены формы облаков: Ci - перистые, Cs - перисто-слоистые, Cc - перисто-кучевые, Ac - высококучевые, As - высокослоистые, Sc - слоисто-кучевые, Ns - слоисто-дождевые, Cu - кучевые, Cb - кучево-дождевые. Подробнее классификацию облаков см. в Атласе облаков (PDF).
T - Температура воздуха - температура, измеренная на высоте 2 м над землей.
Td - Температура точки росы - температура, при понижении до которой содержащийся в воздухе водяной пар достигнет насыщения.
f - Относительная влажность воздуха - влажноcть воздуха, измеренная на высоте 2 м над землей.
Te - Эффективная температура - температура, которую ощущает одетый по сезону человек в тени. Характеристика душности погоды. При расчете учитывается влияние влажности воздуха и скорости ветра на теплоощущения человека.
Tes - Эффективная температура на солнце - температура, которую ощущает человек, с поправкой на солнечный нагрев. Характеристика знойности погоды. Зависит от высоты солнца над горизонтом, облачности и скорости ветра. Ночью, в пасмурную погоду, а также при ветре 12 м/с и более поправка равна нулю.
P - Атмосферное давление - приведенное к уровню моря атмосферное давление.
Po - Атмосферное давление - измеренное на уровне метеостанции атмосферное давление.
Tmin - Минимальная температура - минимум температуры воздуха на высоте 2 м над землей.
Tmax - Максимальная температура - максимум температуры воздуха на высоте 2 м над землей.
R - Количество осадков - Количество выпавших осадков за период времени, мм. При наведении курсора мыши на число - период времени, за который выпало указанное количество осадков.
R24 - Количество осадков - Количество выпавших осадков за 24 часа, мм.
S - Снежный покров - Высота снежного покрова, см. При наведении курсора мыши на число - состояние снежного покрова и степень покрытия местности в баллах.